Theta_e
326 325 327 329 335 340 342 345 352 351 356 359 362 362 358 356 352 350 349 348 346 345 344 342 340 340 344 347 348 348 348 346 350 348 349 350 350 351 351 349 350 352 351 352
325 324 327 329 331 335 340 341 353 350 346 356 362 363 359 358 356 354 353 349 349 346 345 342 341 340 342 347 348 349 351 347 351 346 352 350 352 351 350 352 353 352 351 352
326 324 325 327 328 330 335 339 350 352 348 351 358 367 362 358 359 355 352 351 348 348 346 345 345 343 341 346 348 350 352 348 350 351 350 350 348 345 351 353 354 352 352 352
326 326 325 327 327 329 333 339 345 351 341 353 353 372 364 363 362 359 356 354 352 349 348 347 346 344 342 345 347 350 353 350 347 351 350 351 348 349 352 352 352 351 352 351
326 326 326 326 327 330 334 340 343 344 341 340 343 361 362 344 361 360 358 355 352 349 348 348 348 347 345 345 345 351 352 354 348 350 353 351 351 349 348 352 351 353 353 353
326 326 326 328 328 334 335 335 340 341 340 342 345 346 366 355 351 358 356 354 353 352 347 349 348 347 347 342 343 350 353 354 354 348 351 351 352 347 350 352 353 353 353 353
326 326 326 327 329 332 333 335 343 342 340 339 342 345 362 351 350 347 360 356 354 353 352 348 350 348 347 344 346 352 354 356 354 354 354 355 354 355 350 348 348 354 353 353
326 331 326 328 330 333 332 337 340 342 339 337 336 354 354 344 354 353 353 353 351 349 354 350 350 351 350 349 347 351 356 357 356 356 355 355 354 354 353 353 355 347 354 351
328 329 327 331 333 335 332 336 335 336 335 336 345 348 348 352 352 352 353 355 357 353 355 355 351 351 351 349 347 349 356 357 357 357 357 357 357 356 349 349 346 352 350 351
329 331 330 329 329 332 333 332 335 336 339 338 348 351 356 354 353 351 351 350 352 353 356 356 353 353 351 352 350 352 355 357 359 358 358 359 359 357 354 353 352 353 352 346
327 329 327 326 328 330 331 332 333 334 334 336 348 350 348 353 351 350 349 348 348 346 348 349 349 349 350 347 349 347 350 357 358 359 359 359 358 359 358 356 353 350 352 354
327 327 328 325 324 325 329 332 332 335 339 342 353 355 346 348 348 347 345 345 345 341 340 342 342 344 344 343 345 345 349 351 357 359 359 359 359 358 359 358 356 354 352 352
325 327 329 327 325 324 326 328 329 331 333 342 341 348 346 347 346 344 342 340 341 341 339 338 338 338 339 339 339 343 345 347 350 352 359 359 359 359 359 359 357 357 356 355
324 323 328 329 327 325 325 327 328 329 332 335 345 347 348 346 345 342 340 338 337 338 338 336 336 335 334 333 336 337 340 342 348 349 353 355 359 357 357 357 356 357 357 356
321 323 325 327 323 324 324 325 326 327 329 344 347 346 348 344 342 341 339 339 338 338 336 336 336 334 333 332 331 333 332 336 339 342 343 348 352 357 358 358 357 357 357 357
321 322 324 324 322 321 324 323 323 324 325 333 342 346 342 340 339 339 338 336 336 335 334 334 333 332 333 333 331 330 329 329 334 334 336 341 348 348 352 353 354 356 356 355
322 322 322 325 323 322 321 322 321 322 324 338 344 341 338 339 338 337 335 334 333 331 329 328 328 328 328 328 331 331 329 328 328 330 331 334 338 340 342 346 351 355 355 355
324 325 325 325 323 324 323 321 321 321 322 332 338 338 336 334 332 331 329 327 327 326 325 324 323 324 325 324 324 327 331 332 330 329 329 330 331 333 336 339 342 346 352 355
320 323 324 324 324 324 322 321 319 321 322 330 335 334 332 330 327 326 324 324 323 323 322 321 320 321 323 322 322 323 326 328 328 329 330 330 331 331 331 329 333 339 341 345
318 319 324 324 324 324 324 321 320 319 322 324 330 331 329 329 330 327 322 321 320 319 319 318 319 319 320 320 320 322 323 324 325 325 326 327 329 330 331 331 328 330 337 340
319 320 321 322 323 323 322 320 318 319 324 324 326 326 325 326 327 324 322 320 319 318 318 317 317 318 318 318 319 320 321 323 323 323 323 325 326 327 328 330 331 331 331 335
322 322 322 320 322 323 322 319 319 327 325 323 324 323 325 323 322 320 319 319 317 317 317 317 316 316 317 317 318 319 319 320 320 320 321 322 324 325 325 327 327 329 333 335
324 324 327 326 328 324 322 324 323 322 322 322 322 320 320 319 318 317 317 317 316 316 316 315 315 315 316 317 317 317 317 317 319 319 319 320 321 322 325 324 324 327 327 333
321 320 323 324 325 324 321 322 321 320 321 318 317 317 316 316 316 316 316 315 315 314 313 313 313 313 313 313 313 314 315 315 317 318 319 319 319 319 320 322 323 324 325 327
324 321 321 322 321 320 320 318 316 316 316 315 314 314 314 315 314 315 315 314 312 312 312 312 312 312 312 311 311 311 312 312 314 315 318 318 318 318 319 321 321 321 321 323
320 319 324 325 320 321 320 318 316 315 314 314 314 314 313 313 314 313 313 313 312 312 311 311 311 311 311 310 310 309 309 309 309 311 313 315 316 317 317 318 320 319 318 319
Wind_Speed
14 12 17 22 20 20 19 18 16 2 13 14 18 22 18 19 15 16 12 10 14 13 18 21 21 21 22 22 20 14 21 20 15 14 14 10 10 7 6 5 9 8 4 9
11 18 18 19 19 21 23 16 18 13 8 10 21 17 21 21 18 14 13 15 11 12 14 20 23 23 24 23 21 18 20 21 16 16 15 14 11 11 12 11 10 7 4 4
18 15 21 19 18 22 22 18 16 7 8 11 13 15 20 20 19 22 17 13 16 13 11 17 19 23 24 26 23 21 20 23 20 16 11 11 8 12 11 12 11 9 8 4
20 18 19 17 20 17 19 12 13 12 16 13 24 9 19 22 17 18 17 13 13 17 8 18 19 15 23 28 26 23 20 23 23 14 9 12 21 13 13 16 12 12 9 7
19 17 17 17 18 18 16 17 24 25 15 15 17 8 3 13 17 17 19 17 18 15 16 20 21 23 22 29 26 25 22 22 20 18 12 12 8 10 10 9 15 11 12 8
17 15 13 12 15 13 22 14 13 15 10 13 13 11 13 6 9 16 18 15 18 18 16 18 24 25 21 29 28 27 24 22 20 20 14 16 6 5 4 13 15 14 13 12
18 20 12 13 17 19 20 13 10 10 10 12 20 15 9 16 6 28 20 20 17 16 13 17 19 27 27 29 31 30 27 23 21 21 18 17 12 9 12 12 14 8 15 16
14 12 17 15 20 16 16 19 12 16 13 13 16 10 10 14 24 6 13 9 9 18 17 19 19 28 29 23 33 33 31 25 24 21 20 17 15 10 13 14 9 11 4 10
18 12 17 13 15 6 16 17 17 16 18 15 8 19 20 17 13 9 9 12 10 25 29 21 23 29 29 29 31 33 34 30 28 25 22 20 18 17 13 14 11 6 4 12
12 8 16 11 4 7 16 12 17 15 15 14 14 19 17 18 11 6 8 11 12 19 19 9 11 9 22 22 10 20 34 31 28 25 25 23 21 20 18 10 10 8 3 10
16 12 10 12 14 14 10 12 14 17 14 11 7 6 18 19 13 9 9 10 9 14 15 13 16 16 19 17 7 22 21 30 25 24 25 24 24 22 19 15 12 15 6 11
13 8 11 15 13 18 21 14 16 12 17 6 6 3 6 16 13 12 10 12 12 15 13 12 18 16 23 26 23 12 15 11 13 27 24 26 25 23 22 20 18 16 14 13
10 8 5 13 5 6 9 16 15 15 16 5 9 7 13 13 16 12 12 14 11 14 15 13 18 19 22 22 22 21 19 15 14 8 26 24 24 23 23 24 21 18 17 16
6 9 9 5 5 15 17 16 14 12 10 6 16 17 19 16 17 12 14 15 14 14 13 13 13 18 22 20 19 15 14 7 8 19 8 5 19 25 22 18 20 20 18 18
5 7 5 12 9 12 15 18 12 10 14 12 15 20 21 17 17 13 13 15 17 16 16 14 14 15 16 17 18 16 18 12 10 13 26 24 11 4 14 12 18 17 16 18
6 7 6 10 1 10 7 5 7 7 13 9 21 9 15 18 19 14 13 14 14 15 15 15 15 17 17 17 15 17 19 20 16 20 19 13 12 20 12 2 7 10 13 20
6 6 9 10 7 4 7 5 6 9 9 18 17 10 13 19 15 14 14 13 13 14 13 13 14 17 18 18 18 12 18 22 21 20 17 17 11 10 13 9 5 4 11 14
5 8 8 9 11 10 4 6 5 11 4 10 20 22 16 15 15 14 12 11 10 11 11 11 13 13 15 15 17 16 12 14 21 24 22 17 13 11 11 12 11 9 9 9
9 6 8 10 11 7 5 2 6 5 10 11 15 8 15 17 17 9 8 9 8 8 10 11 10 10 11 12 13 13 15 15 17 18 17 18 20 19 16 15 15 14 14 14
8 7 9 10 11 11 8 12 7 3 10 12 13 15 14 16 9 9 9 8 8 8 8 8 7 8 10 10 11 11 11 12 14 15 15 15 14 15 15 15 16 14 13 13
6 5 10 10 8 3 10 6 2 7 2 16 13 12 13 8 10 14 10 8 5 4 6 6 7 7 8 9 9 9 10 11 12 13 14 14 13 14 12 12 14 18 17 15
6 4 6 8 9 8 11 6 3 7 8 8 7 11 17 13 11 9 7 6 2 2 3 5 6 8 9 10 10 10 11 13 14 14 15 15 15 13 14 14 17 18 17 15
4 7 4 8 3 7 8 13 11 11 10 8 9 7 7 8 7 6 5 5 6 7 7 7 8 8 8 13 14 14 17 18 17 15 16 17 17 17 16 15 18 16 18 13
5 4 4 3 6 5 7 7 9 7 9 7 6 8 6 8 8 8 7 6 8 7 5 5 4 6 8 10 13 15 18 20 21 20 18 17 17 19 20 19 17 14 14 17
6 4 4 7 5 4 5 4 5 7 9 9 8 10 8 9 7 7 7 6 6 5 5 5 6 6 6 9 11 13 16 21 20 22 22 20 18 18 19 19 16 15 18 17
6 8 4 4 8 6 5 10 10 9 8 10 8 9 9 8 8 7 8 6 6 2 4 5 7 7 8 8 9 11 14 16 18 20 20 22 23 21 21 21 22 21 23 23
Wind_Direction
205 217 214 214 213 234 217 218 180 11 131 158 143 140 156 156 164 166 177 171 161 166 167 166 167 165 154 153 161 176 153 157 156 175 174 169 180 157 151 183 173 183 166 141
181 221 218 230 224 234 255 258 127 155 93 40 137 160 163 159 171 185 204 174 175 172 179 167 171 172 164 156 167 173 158 166 178 191 189 174 176 183 186 173 174 178 185 176
219 214 235 211 226 224 238 242 167 168 109 238 148 195 160 181 178 176 191 189 186 196 200 167 182 171 165 159 169 173 170 176 196 195 175 146 185 234 203 165 179 186 175 179
233 236 201 224 232 221 226 235 122 131 183 176 187 144 179 168 182 169 181 186 184 203 239 165 176 173 179 163 169 177 180 178 201 209 200 170 170 191 213 181 172 175 178 174
220 229 203 223 222 214 234 168 181 209 213 215 197 112 133 29 173 162 174 183 195 214 215 177 172 179 193 163 171 173 183 182 196 203 212 187 170 186 175 203 160 179 171 183
239 221 219 217 235 223 239 269 160 244 220 231 206 277 157 170 259 180 172 194 194 198 200 176 178 183 215 165 171 171 181 189 196 201 211 204 176 186 199 170 167 195 177 186
226 225 207 216 217 232 228 238 199 210 220 239 192 204 106 107 266 256 179 182 189 204 207 191 177 184 204 178 171 167 178 186 194 196 204 210 200 180 146 190 197 190 184 193
211 199 206 203 218 212 216 231 211 205 220 230 249 145 172 163 151 290 109 152 62 305 228 199 196 187 195 199 172 168 174 183 192 196 204 215 218 204 197 209 228 193 176 247
198 217 184 208 230 324 200 240 251 222 228 230 113 109 152 138 100 89 90 51 159 217 228 203 202 182 191 201 178 173 174 180 188 198 202 205 212 216 214 212 206 228 180 123
288 303 163 185 308 242 273 230 239 247 264 253 137 157 152 144 121 102 71 50 16 30 32 42 13 248 186 209 128 176 174 179 188 198 203 205 207 215 225 212 201 205 255 217
284 148 184 197 211 226 219 247 250 262 255 235 171 59 133 120 127 125 96 73 46 53 39 53 69 60 74 49 136 302 319 176 188 199 201 204 205 210 218 217 209 230 216 162
284 304 164 193 215 223 247 239 234 240 249 77 97 329 9 115 117 106 97 78 66 76 61 59 62 71 74 65 65 255 293 39 210 199 205 201 199 205 204 211 212 212 218 225
334 244 213 160 181 231 235 240 265 268 265 173 154 150 156 120 108 93 89 83 66 72 71 56 61 58 62 71 65 44 33 19 2 274 195 197 199 202 206 204 204 210 212 213
300 292 16 345 350 207 215 235 237 265 279 314 115 149 121 122 111 107 98 91 85 79 79 79 61 57 58 56 69 57 58 48 322 13 332 143 195 198 206 207 208 206 212 213
306 296 331 178 310 328 205 222 225 244 265 78 137 154 139 130 115 119 101 94 90 87 82 77 82 77 68 70 70 71 61 60 28 12 29 33 37 275 190 204 213 206 206 220
258 289 321 282 171 325 350 85 27 243 266 133 71 109 112 129 133 124 113 99 92 85 77 74 67 68 64 62 62 62 62 56 55 48 37 30 36 4 57 353 265 240 241 239
278 270 273 254 240 230 271 249 185 263 288 130 141 170 132 144 126 122 117 106 95 84 76 71 62 55 51 45 45 63 57 50 48 58 57 45 42 7 16 15 13 343 262 255
218 263 264 260 249 224 251 8 263 214 185 57 137 151 151 120 102 98 102 100 91 87 78 68 63 57 51 44 36 22 45 48 39 36 37 44 41 29 3 355 348 336 342 306
268 260 248 253 236 235 187 229 234 202 145 115 132 132 112 118 108 108 92 100 90 85 81 68 56 62 60 40 42 19 29 40 36 29 25 18 14 12 11 6 349 332 322 314
274 207 272 260 249 257 21 87 15 266 176 143 137 129 141 142 178 153 144 123 99 72 69 53 50 47 52 27 26 16 26 26 27 15 8 6 7 1 350 346 352 341 318 307
234 251 233 239 250 200 114 86 356 199 78 136 150 160 159 125 66 115 121 110 96 66 55 33 31 36 36 21 10 8 6 13 2 353 348 349 350 343 344 345 331 325 333 320
206 213 242 250 253 235 124 151 237 78 85 105 105 124 98 109 118 121 110 108 97 53 24 25 15 15 5 9 4 358 355 352 341 336 332 332 330 329 325 320 323 318 302 309
295 27 338 12 66 78 43 92 116 114 108 98 111 110 117 141 142 130 125 110 93 66 48 25 15 358 7 13 3 351 346 342 333 323 320 319 315 309 306 310 306 304 308 281
230 300 292 356 122 129 94 95 101 115 141 132 136 128 172 153 135 136 121 104 78 66 43 27 28 8 358 355 349 341 343 344 336 321 313 307 306 303 298 289 290 293 302 315
284 4 312 272 250 125 135 164 145 125 128 142 136 151 150 139 143 132 124 112 90 64 46 31 17 6 347 353 343 341 346 349 334 329 323 315 305 299 298 293 286 295 299 288
224 252 210 256 288 264 226 177 165 159 171 152 162 145 153 166 144 148 135 128 100 51 30 16 9 5 0 348 349 349 343 340 334 330 320 324 326 316 315 309 304 296 291 295